Columbia County, Pennsylvania, United States
Lat: 41.04N, Lon: 76.43W
Wx Zone: PAZ053
Local Info
Past Weather Observations for Monday, September 26, 2016

NOTE: This archive is for the closest National Weather Service station to Columbia County. Information may differ from the station used for current weather conditions.

Click here for Long-term Archive

Time Weather Temperature Dewpoint Humidity Pressure Winds Precip Visibility
23:53
Overcast
Fog And Mist
63°F / 17°C 63°F / 17°C 100% 29.95 in
(1014 mb)
Calm - 4SM
23:03
Overcast
Fog And Mist
63°F / 17°C 63°F / 17°C 100% 29.98 in
(1015 mb)
Calm - 5SM
22:53
Overcast
63°F / 17°C 63°F / 17°C 100% 29.98 in
(1015 mb)
Calm 0.02 in
(0.51 mm)
7SM
22:05
Overcast
Light Rain
61°F / 16°C 61°F / 16°C 100% 29.98 in
(1015 mb)
Variable 3.5 mph
(Variable 6 kph)
0.02 in
(0.51 mm)
4SM
22:03
Overcast
Thunder Storms
61°F / 16°C 61°F / 16°C 100% 29.98 in
(1015 mb)
Calm 0.02 in
(0.51 mm)
4SM
21:53
Overcast
Thunder Storms
61°F / 16°C 61°F / 16°C 100% 29.98 in
(1015 mb)
S 4.6 mph
(S 7 kph)
0.18 in
(4.57 mm)
3SM
21:45
Overcast
Thunder Storms
61°F / 16°C 61°F / 16°C 100% 29.98 in
(1015 mb)
Variable 3.5 mph
(Variable 6 kph)
0.16 in
(4.06 mm)
3SM
21:32
Overcast
Thunder Storms
63°F / 17°C 63°F / 17°C 100% 29.98 in
(1015 mb)
S 5.8 mph
(S 9 kph)
0.11 in
(2.79 mm)
2SM
21:24
Overcast
Heavy Rain
63°F / 17°C 63°F / 17°C 100% 29.98 in
(1015 mb)
S 5.8 mph
(S 9 kph)
0.05 in
(1.27 mm)
2 1/2SM
20:53
Overcast
63°F / 17°C 61°F / 16°C 94% 29.98 in
(1015 mb)
Calm 0.00 in
(0.00 mm)
10SM
20:45
Overcast
63°F / 17°C 63°F / 17°C 100% 29.98 in
(1015 mb)
Calm 0.00 in
(0.00 mm)
10SM
19:53
Overcast
63°F / 17°C 63°F / 17°C 100% 30.01 in
(1016 mb)
Variable 4.6 mph
(Variable 7 kph)
0.00 in
(0.00 mm)
10SM
19:24
Overcast
Light Rain
63°F / 17°C 63°F / 17°C 100% 30.01 in
(1016 mb)
S 8.1 mph
(S 13 kph)
0.00 in
(0.00 mm)
7SM
19:00
Overcast
Fog And Mist
63°F / 17°C 63°F / 17°C 100% 30.01 in
(1016 mb)
S 10.4 mph
(S 17 kph)
- 4SM
18:53
Overcast
Fog And Mist
63°F / 17°C 63°F / 17°C 100% 30.01 in
(1016 mb)
Variable 4.6 mph
(Variable 7 kph)
- 3SM
17:53
Overcast
Fog And Mist
63°F / 17°C 61°F / 16°C 94% 30.01 in
(1016 mb)
S 9.2 mph
(S 15 kph)
- 4SM
16:53
Overcast
63°F / 17°C 61°F / 16°C 94% 30.01 in
(1016 mb)
S 4.6 mph
(S 7 kph)
- 10SM
16:31
Overcast
63°F / 17°C 61°F / 16°C 94% 30.01 in
(1016 mb)
SSE 11.5 mph
(SSE 19 kph)
- 8SM
16:15
Overcast
Fog And Mist
63°F / 17°C 63°F / 17°C 100% 30.01 in
(1016 mb)
S 10.4 mph
(S 17 kph)
- 4SM
15:53
Overcast
Fog And Mist
63°F / 17°C 61°F / 16°C 94% 30.01 in
(1016 mb)
S 8.1 mph
(S 13 kph)
- 3SM
15:40
Overcast
63°F / 17°C 61°F / 16°C 94% 30.01 in
(1016 mb)
S 10.4 mph
(S 17 kph)
- 7SM
14:53
Overcast
64°F / 18°C 59°F / 15°C 83% 30.01 in
(1016 mb)
S 11.5 mph
(S 19 kph)
- 10SM
13:53
Overcast
66°F / 19°C 57°F / 14°C 73% 30.04 in
(1017 mb)
SSE 13.8 mph
(SSE 22 kph)
- 10SM
12:53
Overcast
66°F / 19°C 57°F / 14°C 73% 30.06 in
(1018 mb)
S 11.5 mph
(S 19 kph)
- 10SM
12:11
Overcast
66°F / 19°C 55°F / 13°C 68% 30.09 in
(1019 mb)
S 10.4 mph
(S 17 kph)
- 10SM
11:53
Overcast
68°F / 20°C 55°F / 13°C 64% 30.09 in
(1019 mb)
S 12.7 mph
(S 20 kph)
- 9SM
10:53
Overcast
Hazy
68°F / 20°C 55°F / 13°C 64% 30.09 in
(1019 mb)
S 11.5 mph
(S 19 kph)
- 6SM
09:53
Overcast
63°F / 17°C 48°F / 9°C 59% 30.12 in
(1020 mb)
S 5.8 mph
(S 9 kph)
- 10SM
09:22
Overcast
Hazy
59°F / 15°C 46°F / 8°C 63% 30.12 in
(1020 mb)
E 3.5 mph
(E 6 kph)
- 4SM
09:12
Overcast
Hazy
57°F / 14°C 46°F / 8°C 67% 30.12 in
(1020 mb)
Calm - 1 3/4SM
08:53
Overcast
Hazy
57°F / 14°C 46°F / 8°C 67% 30.12 in
(1020 mb)
Calm - 4SM
07:53
Overcast
52°F / 11°C 45°F / 7°C 77% 30.15 in
(1021 mb)
N 4.6 mph
(N 7 kph)
- 10SM
06:53
Overcast
46°F / 8°C 46°F / 8°C 100% 30.15 in
(1021 mb)
Calm - 10SM
05:53
Mostly Cloudy
45°F / 7°C 45°F / 7°C 100% 30.15 in
(1021 mb)
NW 3.5 mph
(NW 6 kph)
- 10SM
04:53
Clear
43°F / 6°C 43°F / 6°C 100% 30.15 in
(1021 mb)
N 3.5 mph
(N 6 kph)
- 10SM
03:53
Clear
45°F / 7°C 45°F / 7°C 100% 30.15 in
(1021 mb)
Calm - 10SM
02:53
Clear
45°F / 7°C 45°F / 7°C 100% 30.15 in
(1021 mb)
NW 3.5 mph
(NW 6 kph)
- 10SM
01:53
Clear
45°F / 7°C 45°F / 7°C 100% 30.15 in
(1021 mb)
Calm - 10SM
00:53
Clear
46°F / 8°C 45°F / 7°C 93% 30.18 in
(1022 mb)
Calm - 10SM
Time Weather Temperature Dewpoint Humidity Pressure Winds Precip Visibility


Weather for websites

WeatherForYou.com, LLC is not responsible for any damages or problems caused by this service. Current weather conditions are obtained from the closest station including government and personal stations which may have varying degrees of accuracy. Weather forecasts are derived from the NOAA NDFD. Like all things, this site belongs to Jesus Christ... He just trusts us to maintain it. If you have any questions or comments email webmaster@weatherforyou.com

Copyright © 2016, WeatherForYou.com LLC. All rights reserved.